Meteo Giornale » Osservazioni meteo Italia » Bergamo-Orio Al Serio

ore: 00:50 - Osservazioni Meteo Bergamo-Orio Al Serio
Lat. 45° 40' N Lon. 9° 42' E Alt. 238 metri s.l.m.

coperto_pioggia Europe/Rome

10 °C

Pioggia Debole

Temp. 24 Ore

10 °C

14 °C

Nord-Est

7.4 Km/h

Dew point 10 °C

Umidità 100 %

Visibilità  10 Km

Il sole sorge alle ore 06:12

Il sole tramonta alle ore 20:25

Data e Ora Cielo e Fenomeni T °C DP °C Um. % Pres. hPa Vis. km Vento km/h
Oggi h: 00:50 coperto_pioggia Pioggia Debole 10 10 100 1007 10 NE 7.4
Oggi h: 00:20 coperto_pioggia Pioggia 10 10 100 1007 7 N/NE 7.4
Ieri h: 23:50 coperto_pioggia Pioggia 10 10 100 1008 7 NE 7.4
Ieri h: 23:20 coperto_pioggia Pioggia 10 10 100 1008 7 N/NE 11.1
Ieri h: 22:50 coperto_pioggia Pioggia 10 10 100 1007 7 N/NE 11.1
Ieri h: 22:20 coperto_pioggia Pioggia Foschia 10 10 100 1007 5 NE 13
Ieri h: 21:50 coperto_pioggia Pioggia 10 10 100 1008 6 N/NE 11.1
Ieri h: 21:20 coperto_pioggia Pioggia 11 11 100 1007 6 N 3.7
Ieri h: 20:50 coperto_pioggia Pioggia 11 10 93 1007 6 N 5.5
Ieri h: 20:20 coperto_pioggia Pioggia 11 10 93 1007 7 N 3.7
Ieri h: 19:50 coperto_pioggia Pioggia 11 9 87 1007 7 N 3.7
Ieri h: 19:20 coperto_pioggia Pioggia 11 10 93 1007 7 NE 7.4
Ieri h: 18:50 coperto_pioggia Pioggia Debole 11 10 93 1007 8 E 9.3
Ieri h: 18:20 coperto_pioggia Pioggia Debole 11 10 93 1007 9 N 5.5
Ieri h: 17:50 coperto_pioggia Pioggia Debole 11 11 100 1008 9 N 3.7
Ieri h: 17:20 coperto_pioggia Pioggia Debole 11 10 93 1007 9 N 5.5
Ieri h: 16:50 coperto_pioggia Pioviggine Leggera 11 10 93 1008 8 N 3.7
Ieri h: 16:20 coperto_pioggia Pioviggine Leggera 12 10 87 1008 8 N 3.7
Ieri h: 15:50 coperto_pioggia Pioviggine Leggera 12 10 87 1008 8 E/NE 7.4
Ieri h: 15:20 coperto_pioggia Pioggia Debole 12 10 87 1008 8 E 9.3
Ieri h: 14:50 coperto_pioggia Pioggia Debole 11 9 87 1008 8 E 7.4
Ieri h: 14:20 coperto_pioggia Pioggia Debole 11 9 87 1008 8 NE 7.4
Ieri h: 13:50 coperto_pioggia Pioggia Debole 11 9 87 1008 8 E/NE 9.3
Ieri h: 13:20 coperto_pioggia Pioggia Debole 11 9 87 1008 8 N/NE 9.3
Ieri h: 12:50 coperto_pioggia Pioggia Debole 12 11 93 1008 8 N 5.5
Ieri h: 12:20 coperto_pioggia Pioggia Debole 12 11 93 1007 10 E/NE 7.4
Ieri h: 11:50 coperto_pioggia Pioggia Debole 12 10 87 1008 10 NE 11.1
Ieri h: 11:20 coperto_pioggia Pioggia 11 10 93 1008 7 N/NE 11.1
Ieri h: 10:50 coperto_pioggia Pioggia 12 11 93 1008 6 E/NE 7.4
Ieri h: 10:20 coperto_pioggia Pioggia 11 11 100 1007 6 E/NE 11.1
Ieri h: 09:50 coperto_pioggia Pioggia 11 11 100 1008 6 E 13
Ieri h: 09:20 coperto_pioggia Pioggia 11 11 100 1007 6 E 11.1
Ieri h: 08:50 coperto_pioggia Pioggia 12 11 93 1007 6 E 13
Ieri h: 08:20 coperto_pioggia Pioggia Foschia 12 11 93 1007 4 E/SE 16.7
Ieri h: 07:50 coperto_pioggia Pioggia 12 10 87 1008 5 E 7.4
Ieri h: 07:20 coperto_pioggia Pioggia Debole 12 10 87 1007 7 E 9.3
Ieri h: 06:50 coperto_pioggia Pioggia Debole 13 10 81 1007 7 E 7.4
Ieri h: 06:20 molto_nuvoloso Molto Nuvoloso 13 9 76 1007 10 E/SE 16.7
Ieri h: 05:50 coperto_pioggia Pioggia Debole 13 9 76 1007 10 E 9.3
Ieri h: 05:20 coperto_pioggia Pioggia Debole 14 9 71 1007 10 E/NE 13
Ieri h: 04:50 coperto_pioggia Pioggia Debole 13 9 76 1007 10 E/NE 13
Ieri h: 04:20 molto_nuvoloso Molto Nuvoloso 14 8 67 1008 10 E 9.3
Ieri h: 03:50 molto_nuvoloso Molto Nuvoloso 14 8 67 1008 10 E 13
Ieri h: 03:20 molto_nuvoloso Molto Nuvoloso 14 7 62 1008 10 E/NE 11.1
Ieri h: 02:50 molto_nuvoloso Molto Nuvoloso 14 8 67 1009 10 N 3.7
Ieri h: 02:20 molto_nuvoloso Molto Nuvoloso 14 8 67 1009 10 NE 9.3
Ieri h: 01:50 molto_nuvoloso Molto Nuvoloso 14 8 67 1009 10 E/NE 7.4